Regional Weather Roundup
Issued by NWS

Home | Current Version | Previous Version | Graphics & Text | Print | Product List | Glossary On
Versions: 1 2 3 4 5 6 7 8 9 10 11 12 13 14 15 16 17 18 19 20 21 22 23 24 25 26 27
000
ASUS45 KCYS 020410
RWRWY

WYOMING REGIONAL WEATHER ROUNDUP
NATIONAL WEATHER SERVICE CHEYENNE WY
900 PM MST THU DEC 01 2016

NOTE:  "FAIR" INDICATES FEW OR NO CLOUDS BELOW 12,000 FEET
WITH NO SIGNIFICANT WEATHER AND/OR OBSTRUCTIONS TO VISIBILITY.

WYZ001-020500-
YELLOWSTONE NATIONAL PARK

CITY           SKY/WX    TMP DP  RH WIND       PRES   REMARKS
LK YELLOWSTONE   N/A      5   4  95 CALM      30.01R
W YELLOWSTONE  NOT AVBL

$$
WYZ002>013-054>058-071-098>099-020500-
NORTHERN WYOMING

CITY           SKY/WX    TMP DP  RH WIND       PRES   REMARKS
JACKSON        CLOUDY    10  10 100 N8        30.04R WCI  -1
CODY           FAIR      21  16  81 CALM      30.03R
GREYBULL       MOCLDY    29  18  63 CALM      30.02R
WORLAND        CLOUDY    29  23  78 S3        30.02R
SHERIDAN       MOCLDY    31  22  69 W9        30.01R WCI  23
BUFFALO        CLOUDY    34  21  59 NW8       30.00R WCI  27
GILLETTE       CLOUDY    30  23  75 W9        29.98R WCI  22
HULETT         CLOUDY    27  23  86 SW6       30.00R WCI  20
NEWCASTLE      LGT SNOW  27  27 100 CALM      30.00S

$$
WYZ014>020-022>026-101>103-020500-
CENTRAL WYOMING

CITY           SKY/WX    TMP DP  RH WIND       PRES   REMARKS
BIG PINEY      FAIR       9   6  88 N13       30.00R WCI  -7
PINEDALE       MOCLDY    10   7  85 NE5       29.99R WCI   2
DUBOIS         FAIR      19   9  63 W16       29.96S WCI   5
LANDER         FAIR      21  11  65 W9        30.00R WCI  11
RIVERTON       CLOUDY    23  17  78 NW8       30.00R WCI  14
CASPER         CLOUDY    25  23  92 N5        30.00R WCI  19
DOUGLAS        LGT SNOW  28  26  92 NW7       30.01R FOG     WCI  21

$$
WYZ021-027>030-104>119-020500-
SOUTHERN WYOMING

CITY           SKY/WX    TMP DP  RH WIND       PRES   REMARKS
EVANSTON       FLURRIES  19  13  77 CALM      30.02R
FORT BRIDGER     N/A     17  16  97 SW8       30.04S WCI   6
ROCK SPRINGS   CLOUDY    18  12  77 SW9       29.99S WCI   7
DIXON          LGT SNOW  22  20  91 NE3       30.04R
RAWLINS        CLOUDY    22  16  78 SW7       29.98R WCI  13
SARATOGA       LGT SNOW  21  21 100 CALM      29.99S
LARAMIE        CLOUDY    18  13  80 E7        29.95R WCI   9
CHEYENNE       CLOUDY    23  14  68 W8        29.98R WCI  14
TORRINGTON     MOCLDY    29  16  58 N6        30.00R WCI  23
PINE BLUFFS    FAIR      23  18  80 W7        30.01R WCI  15

$$




USA.gov is the U.S. government's official web portal to all federal, state and local government web resources and services.